Pikeville, NC

7:49 AM EST on December 06, 2016 (GMT -0500)
Goldsboro-Wayne Municipal

Weather History for KGWW - December, 2012

Change the Weather History Date:

Monday, December 17, 2012

  Actual Average (KGSB) Record (KGSB)
Temperature  
Mean Temperature 59 °F -  
Max Temperature 64 °F 53 °F 73 °F (2000)
Min Temperature 55 °F 34 °F 27 °F (2007)
Degree Days  
Heating Degree Days 6    
Growing Degree Days 9 (Base 50)    
Moisture  
Dew Point 57 °F    
Average Humidity 95    
Maximum Humidity 100    
Minimum Humidity 81    
Precipitation  
Precipitation 0.24 in - - ()
Sea Level Pressure  
Sea Level Pressure 29.81 in    
Wind  
Wind Speed 4 mph (SSW)    
Max Wind Speed 16 mph    
Max Gust Speed 25 mph    
Visibility 7 miles    
Events Rain    
Averages and records for this station are not official NWS values.
T = Trace of Precipitation, MM = Missing Value Source: NWS Daily Summary

Daily Weather History Graph

Daily Weather History Graph

Search for Another Location

Airport or City:

Trip Planner

Search our weather history database for the weather conditions in past years. The results will help you decide how hot, cold, wet, or windy it might be!

Date:

Astronomy

Dec. 17, 2012 Rise Set
Actual Time 7:15 AM EST 5:01 PM EST
Civil Twilight 6:46 AM EST 5:29 PM EST
Nautical Twilight 6:14 AM EST 6:01 PM EST
Astronomical Twilight 5:43 AM EST 6:32 PM EST
Moon 10:31 AM EST (12/17) 10:11 PM EST (12/17)
Length of Visible Light 10h 42m
Length of Day
9h 46m
Waxing Crescent, 24% of the Moon is Illuminated
Dec 17
Waxing Crescent
Dec 20
First Quarter
Dec 28
Full
Jan 4
Last Quarter
Jan 11
New

Hourly Weather History & Observations

Time (EST) Temp. Dew Point Humidity Pressure Visibility Wind Dir Wind Speed Gust Speed Precip Events Conditions
12:15 AM 57.2 °F 57.2 °F 100% 29.91 in 3.0 mi Calm Calm - N/A Rain Light Rain
12:35 AM 56.8 °F 56.8 °F 100% 29.91 in 3.0 mi Calm Calm - N/A   Overcast
12:55 AM 56.8 °F 56.8 °F 100% 29.90 in 7.0 mi WSW 3.5 mph - N/A   Overcast
1:15 AM 56.5 °F 56.5 °F 100% 29.91 in 7.0 mi Calm Calm - N/A   Overcast
1:35 AM 56.5 °F 56.5 °F 100% 29.89 in 5.0 mi Calm Calm - N/A   Overcast
2:15 AM 56.1 °F 56.1 °F 100% 29.90 in 4.0 mi SSE 3.5 mph - N/A   Overcast
2:55 AM 56.3 °F 56.3 °F 100% 29.88 in 3.0 mi SSE 3.5 mph - N/A Rain Rain
3:15 AM 56.1 °F 56.1 °F 100% 29.87 in 4.0 mi Calm Calm - 0.01 in Rain Light Rain
3:35 AM 55.9 °F 55.9 °F 100% 29.87 in 3.0 mi Calm Calm - 0.02 in Rain Rain
3:55 AM 55.8 °F 55.8 °F 100% 29.87 in 2.0 mi Calm Calm - 0.04 in Rain Rain
4:15 AM 55.8 °F 55.8 °F 100% 29.86 in 1.8 mi Calm Calm - 0.03 in Rain Rain
4:35 AM 55.8 °F 55.8 °F 100% 29.87 in 1.2 mi Calm Calm - 0.06 in Rain Rain
4:55 AM 55.6 °F 55.6 °F 100% 29.86 in 1.0 mi Calm Calm - 0.08 in Rain Light Rain
5:15 AM 55.4 °F 55.4 °F 100% 29.85 in 2.0 mi Calm Calm - 0.03 in Rain Rain
5:55 AM 55.6 °F 55.6 °F 100% 29.82 in 4.0 mi Calm Calm - 0.05 in Rain Light Rain
6:15 AM 55.4 °F 55.4 °F 100% 29.82 in 3.0 mi SE 4.6 mph - N/A Rain Light Rain
6:35 AM 55.6 °F 55.6 °F 100% 29.81 in 4.0 mi SSE 4.6 mph - 0.01 in   Light Drizzle
6:55 AM 55.6 °F 55.6 °F 100% 29.80 in 4.0 mi SE 6.9 mph - 0.01 in Rain Rain
7:15 AM 55.6 °F 55.6 °F 100% 29.78 in 5.0 mi SE 8.1 mph - N/A   Overcast
7:35 AM 55.8 °F 55.8 °F 100% 29.80 in 7.0 mi SSE 5.8 mph - N/A   Overcast
7:55 AM 56.1 °F 56.1 °F 100% 29.80 in 7.0 mi SSW 3.5 mph - N/A   Overcast
8:15 AM 56.3 °F 56.3 °F 100% 29.85 in 7.0 mi WNW 6.9 mph - N/A   Overcast
8:35 AM 56.5 °F 56.5 °F 100% 29.84 in 10.0 mi NW 3.5 mph - N/A   Overcast
9:15 AM 56.8 °F 56.8 °F 100% 29.86 in 7.0 mi NW 5.8 mph - N/A   Overcast
9:35 AM 56.8 °F 56.8 °F 100% 29.88 in 4.0 mi NW 5.8 mph - N/A   Overcast
9:55 AM 56.7 °F 56.7 °F 100% 29.87 in 1.5 mi North 3.5 mph - N/A   Overcast
10:15 AM 57.2 °F 57.2 °F 100% 29.87 in 4.0 mi Calm Calm - N/A   Overcast
10:35 AM 58.6 °F 58.6 °F 100% 29.86 in 10.0 mi Calm Calm - N/A   Mostly Cloudy
10:55 AM 60.4 °F 60.4 °F 100% 29.86 in 10.0 mi South 3.5 mph - N/A   Mostly Cloudy
11:15 AM 61.0 °F 59.4 °F 94% 29.84 in 10.0 mi SE 3.5 mph - N/A   Scattered Clouds
11:35 AM 62.8 °F 59.0 °F 87% 29.83 in 10.0 mi South 3.5 mph - N/A   Clear
11:55 AM 63.7 °F 58.6 °F 84% 29.80 in 10.0 mi Calm Calm - N/A   Scattered Clouds
12:15 PM 63.7 °F 58.3 °F 83% 29.81 in 10.0 mi SW 5.8 mph - N/A   Scattered Clouds
12:35 PM 63.5 °F 57.7 °F 81% 29.81 in 10.0 mi WSW 5.8 mph - N/A   Clear
12:55 PM 63.9 °F 58.5 °F 83% 29.80 in 10.0 mi South 4.6 mph - N/A   Scattered Clouds
1:15 PM 63.9 °F 57.9 °F 81% 29.79 in 10.0 mi SW 8.1 mph - N/A   Mostly Cloudy
1:55 PM 63.5 °F 58.1 °F 83% 29.78 in 10.0 mi SSW 6.9 mph - N/A   Scattered Clouds
2:15 PM 63.0 °F 57.7 °F 83% 29.77 in 10.0 mi South 5.8 mph - N/A   Scattered Clouds
2:35 PM 62.8 °F 57.9 °F 84% 29.78 in 10.0 mi SW 8.1 mph - N/A   Scattered Clouds
2:55 PM 62.6 °F 57.7 °F 84% 29.79 in 10.0 mi SW 6.9 mph - N/A   Scattered Clouds
3:15 PM 62.1 °F 58.3 °F 87% 29.77 in 10.0 mi SSE 6.9 mph - N/A Rain Light Rain
3:35 PM 61.2 °F 58.5 °F 91% 29.79 in 10.0 mi South 6.9 mph - N/A   Drizzle
3:55 PM 60.8 °F 58.6 °F 93% 29.80 in 10.0 mi SSW 9.2 mph - N/A Rain Light Rain
4:15 PM 60.1 °F 58.8 °F 96% 29.81 in 10.0 mi SSW 9.2 mph - N/A   Light Drizzle
4:35 PM 59.4 °F 58.5 °F 97% 29.80 in 10.0 mi South 10.4 mph 18.4 mph N/A   Drizzle
4:55 PM 59.0 °F 58.5 °F 98% 29.79 in 10.0 mi SSW 6.9 mph - 0.01 in Rain Light Rain
7:55 PM 58.3 °F 57.7 °F 98% 29.74 in 10.0 mi South 12.7 mph 20.7 mph 0.04 in Rain Light Rain
8:15 PM 58.5 °F 57.2 °F 96% 29.71 in 10.0 mi South 13.8 mph 19.6 mph 0.01 in Rain Light Rain
8:35 PM 58.5 °F 56.5 °F 93% 29.66 in 10.0 mi South 16.1 mph 24.2 mph 0.01 in Rain Light Rain
8:55 PM 58.3 °F 56.3 °F 93% 29.63 in 10.0 mi South 12.7 mph 25.3 mph 0.01 in Rain Light Rain
9:15 PM 59.0 °F 55.6 °F 88% 29.66 in 10.0 mi South 12.7 mph 19.6 mph N/A   Mostly Cloudy
9:35 PM 58.5 °F 55.6 °F 90% 29.69 in 10.0 mi West 11.5 mph - N/A   Scattered Clouds
10:15 PM 57.4 °F 55.9 °F 95% 29.71 in 10.0 mi WSW 8.1 mph - N/A   Clear
10:35 PM 57.2 °F 55.8 °F 95% 29.70 in 10.0 mi SW 6.9 mph - N/A   Clear
10:55 PM 57.2 °F 56.1 °F 96% 29.70 in 10.0 mi SW 9.2 mph - N/A   Scattered Clouds
11:15 PM 57.2 °F 56.3 °F 97% 29.70 in 10.0 mi SSW 8.1 mph - N/A   Mostly Cloudy
11:35 PM 57.2 °F 56.3 °F 97% 29.70 in 10.0 mi SSW 10.4 mph - N/A   Overcast